Weather History for KHSV - August, 2013

Change the Weather History Date:

Wednesday, August 14, 2013

  Actual Average Record
Temperature  
Mean Temperature 74 °F 80 °F  
Max Temperature 83 °F 91 °F 103 °F (1954)
Min Temperature 64 °F 70 °F 52 °F (2004)
Degree Days  
Heating Degree Days 0 0  
Month to date heating degree days 0 0  
Since 1 June heating degree days 0 1  
Since 1 July heating degree days 0 0  
Cooling Degree Days 9 16  
Month to date cooling degree days 189 224  
Year to date cooling degree days 1267 1349  
Since 1 June cooling degree days 1034 1086  
Growing Degree Days 26 (Base 50)    
Moisture  
Dew Point 64 °F    
Average Humidity 71    
Maximum Humidity 90    
Minimum Humidity 51    
Precipitation  
Precipitation 0.00 in 0.11 in 1.55 in (1901)
Month to date precipitation 1.26 1.69  
Year to date precipitation 43.07 34.40  
Snow  
Snow 0.00 in - - ()
Month to date snowfall 0.0  
Since 1 June snowfall 0.0  
Since 1 July snowfall 0.0  
Snow Depth 0.00 in    
Sea Level Pressure  
Sea Level Pressure 29.99 in    
Wind  
Wind Speed 9 mph (NNE)    
Max Wind Speed 15 mph    
Max Gust Speed 25 mph    
Visibility 10 miles    
Events      
T = Trace of Precipitation, MM = Missing Value Source: NWS Daily Summary

Daily Weather History Graph

Daily Weather History Graph

Search for Another Location

Airport or City:

Trip Planner

Search our weather history database for the weather conditions in past years. The results will help you decide how hot, cold, wet, or windy it might be!

Date:

Astronomy

Aug. 14, 2013 Rise Set
Actual Time 6:07 AM CDT 7:35 PM CDT
Civil Twilight 5:40 AM CDT 8:02 PM CDT
Nautical Twilight 5:08 AM CDT 8:34 PM CDT
Astronomical Twilight 4:34 AM CDT 9:07 PM CDT
Moon 1:44 PM CDT (8/14) No Moon Set
Length of Visible Light 14h 22m
Length of Day
13h 28m
First Quarter, 53% of the Moon is Illuminated
Aug 14
First Quarter
Aug 20
Full
Aug 28
Last Quarter
Sep 5
New
Sep 12
First Quarter

Hourly Weather History & Observations

Time (CDT) Temp. Heat Index Dew Point Humidity Pressure Visibility Wind Dir Wind Speed Gust Speed Precip Events Conditions
12:53 AM 75.0 °F - 68.0 °F 79% 29.94 in 10.0 mi NNE 9.2 mph - N/A   Clear
1:53 AM 73.9 °F - 68.0 °F 82% 29.94 in 10.0 mi NNE 6.9 mph - N/A   Mostly Cloudy
2:53 AM 72.0 °F - 68.0 °F 87% 29.94 in 9.0 mi NNE 5.8 mph - N/A   Scattered Clouds
3:53 AM 71.1 °F - 66.9 °F 87% 29.95 in 8.0 mi Calm Calm - N/A   Partly Cloudy
4:53 AM 71.1 °F - 66.0 °F 84% 29.96 in 10.0 mi NE 10.4 mph - N/A   Clear
5:53 AM 70.0 °F - 66.0 °F 87% 29.98 in 10.0 mi NNE 9.2 mph - N/A   Mostly Cloudy
6:53 AM 70.0 °F - 66.0 °F 87% 29.99 in 9.0 mi NNE 9.2 mph - N/A   Mostly Cloudy
7:21 AM 69.8 °F - 66.2 °F 88% 30.01 in 9.0 mi NNE 9.2 mph - N/A   Mostly Cloudy
7:53 AM 70.0 °F - 64.9 °F 84% 30.00 in 10.0 mi NE 13.8 mph - N/A   Mostly Cloudy
8:09 AM 69.8 °F - 64.4 °F 83% 30.02 in 10.0 mi NNE 10.4 mph - N/A   Mostly Cloudy
8:53 AM 73.0 °F - 66.0 °F 79% 30.01 in 10.0 mi NNE 9.2 mph - N/A   Mostly Cloudy
9:53 AM 72.0 °F - 64.9 °F 78% 30.02 in 10.0 mi NNE 8.1 mph - N/A   Mostly Cloudy
10:53 AM 73.0 °F - 66.0 °F 79% 30.02 in 10.0 mi North 8.1 mph - N/A   Mostly Cloudy
11:53 AM 75.9 °F - 66.0 °F 71% 30.01 in 10.0 mi NNE 10.4 mph - N/A   Mostly Cloudy
12:53 PM 80.1 °F 82.1 °F 66.0 °F 62% 30.00 in 10.0 mi North 11.5 mph - N/A   Scattered Clouds
1:53 PM 81.0 °F 82.7 °F 64.9 °F 58% 29.98 in 10.0 mi North 9.2 mph - N/A   Scattered Clouds
2:53 PM 82.0 °F 83.1 °F 63.0 °F 52% 29.97 in 10.0 mi North 12.7 mph - N/A   Scattered Clouds
3:53 PM 80.1 °F 81.7 °F 64.0 °F 58% 29.97 in 10.0 mi North 10.4 mph - N/A   Scattered Clouds
4:53 PM 80.1 °F 81.5 °F 63.0 °F 56% 29.98 in 10.0 mi North 11.5 mph - N/A   Partly Cloudy
5:53 PM 78.1 °F - 61.0 °F 56% 29.98 in 10.0 mi North 9.2 mph - N/A   Partly Cloudy
6:53 PM 73.9 °F - 60.1 °F 62% 29.99 in 10.0 mi North 8.1 mph - N/A   Partly Cloudy
7:53 PM 70.0 °F - 59.0 °F 68% 30.00 in 10.0 mi North 6.9 mph - N/A   Partly Cloudy
8:53 PM 69.1 °F - 60.1 °F 73% 30.02 in 10.0 mi North 5.8 mph - N/A   Scattered Clouds
9:53 PM 71.1 °F - 57.9 °F 63% 30.04 in 10.0 mi NNE 8.1 mph - N/A   Mostly Cloudy
10:53 PM 69.1 °F - 57.0 °F 65% 30.03 in 10.0 mi NE 9.2 mph - N/A   Partly Cloudy
11:53 PM 66.9 °F - 57.0 °F 70% 30.04 in 10.0 mi NE 8.1 mph - N/A   Partly Cloudy